Dubrovnik, Croatia

2:02 PM CEST on June 23, 2018 (GMT +0200)
Cilipi

Weather History for LDDU - December, 2017

Change the Weather History Date:

Saturday, December 16, 2017

  Actual Average (LYTV) Record (LYTV)
Temperature  
Mean Temperature 52 °F -  
Max Temperature 56 °F 53 °F 62 °F (2015)
Min Temperature 48 °F 36 °F 30 °F (2006)
Degree Days  
Heating Degree Days 13    
Growing Degree Days 2 (Base 50)    
Moisture  
Dew Point 47 °F    
Average Humidity 80    
Maximum Humidity 100    
Minimum Humidity 45    
Precipitation  
Precipitation 0.03 in - - ()
Sea Level Pressure  
Sea Level Pressure 29.69 in    
Wind  
Wind Speed 11 mph ()    
Max Wind Speed 21 mph    
Max Gust Speed 37 mph    
Visibility 7.8 miles    
Events Rain , Thunderstorm    
Averages and records for this station are not official NWS values.
T = Trace of Precipitation, MM = Missing Value Source: Averaged Metar Reports

Daily Weather History Graph

Daily Weather History Graph

Search for Another Location

Airport or City:

Astronomy

Dec. 16, 2017 Rise Set
Actual Time 7:10 AM CET 4:14 PM CET
Civil Twilight 6:38 AM CET 4:46 PM CET
Nautical Twilight 6:02 AM CET 5:22 PM CET
Astronomical Twilight 5:28 AM CET 5:56 PM CET
Moon 5:09 AM CET (12/16) 3:23 PM CET (12/16)
Length of Visible Light 10h 08m
Length of Day
9h 04m
Waning Crescent, 3% of the Moon is Illuminated
Dec 16
Waning Crescent
Dec 18
New
Dec 26
First Quarter
Jan 2
Full
Jan 8
Last Quarter

Hourly Weather History & Observations

Time (CET) Temp. Dew Point Humidity Pressure Visibility Wind Dir Wind Speed Gust Speed Precip Events Conditions
12:00 AM 57.2 °F 55.4 °F 94% 29.62 in 6.2 mi SE 19.6 mph - N/A   Mostly Cloudy
12:30 AM 57.2 °F 55.4 °F 94% 29.59 in 6.2 mi SSE 19.6 mph 36.8 mph N/A   Mostly Cloudy
1:00 AM 57 °F 55 °F 91% 29.60 in 6 mi SSE 20.1 mph - -  
1:00 AM 57.2 °F 55.4 °F 94% 29.59 in 6.2 mi SSE 20.7 mph - N/A   Mostly Cloudy
1:30 AM 57.2 °F 55.4 °F 94% 29.59 in 6.2 mi SSE 20.7 mph 32.2 mph N/A   Mostly Cloudy
2:00 AM 57.2 °F 55.4 °F 94% 29.59 in 6.2 mi SSE 19.6 mph 31.1 mph N/A   Mostly Cloudy
2:30 AM 57.2 °F 55.4 °F 94% 29.59 in 6.2 mi SSE 17.3 mph - N/A   Mostly Cloudy
3:00 AM 57.2 °F 57.2 °F 100% 29.59 in 6.2 mi SSE 17.3 mph 28.8 mph N/A   Mostly Cloudy
3:30 AM 57.2 °F 55.4 °F 94% 29.59 in 6.2 mi SSE 15.0 mph - N/A Rain Light Rain
4:00 AM 57 °F 56 °F 94% 29.60 in 6 mi South 15.7 mph - - Rain Light Rain
4:00 AM 57.2 °F 55.4 °F 94% 29.59 in 6.2 mi South 13.8 mph 26.5 mph N/A Rain Light Rain
4:30 AM 55.4 °F 55.4 °F 100% 29.59 in 6.2 mi SSW 16.1 mph 29.9 mph N/A Rain Rain
5:00 AM 55.4 °F 53.6 °F 94% 29.59 in 6.2 mi SSW 11.5 mph - N/A   Mostly Cloudy
5:30 AM 55.4 °F 53.6 °F 94% 29.62 in 6.2 mi South 8.1 mph - N/A   Mostly Cloudy
6:00 AM 55.4 °F 50.0 °F 82% 29.62 in 6.2 mi SSW 9.2 mph - N/A   Mostly Cloudy
6:30 AM 57.2 °F 46.4 °F 67% 29.65 in 6.2 mi SSW 11.5 mph - N/A   Mostly Cloudy
7:00 AM 56 °F 48 °F 66% 29.65 in 16 mi SSW 11.2 mph - -   Partly Cloudy
7:00 AM 53.6 °F 50.0 °F 88% 29.65 in 6.2 mi West 17.3 mph - N/A Rain Rain
8:00 AM 51.8 °F 48.2 °F 88% 29.68 in 6.2 mi NW 5.8 mph - N/A   Partly Cloudy
8:30 AM 51.8 °F 46.4 °F 82% 29.68 in 6.2 mi NNW 4.6 mph - N/A   Scattered Clouds
9:00 AM 53.6 °F 44.6 °F 72% 29.68 in 6.2 mi NNW 9.2 mph - N/A   Partly Cloudy
9:30 AM 51.8 °F 44.6 °F 76% 29.71 in 6.2 mi Variable 4.6 mph - N/A   Partly Cloudy
10:00 AM 53 °F 43 °F 59% 29.75 in 19 mi NNW 2.2 mph - -   Partly Cloudy
10:00 AM 53.6 °F 42.8 °F 67% 29.74 in 6.2 mi NW 3.5 mph - N/A   Partly Cloudy
10:30 AM 53.6 °F 42.8 °F 67% 29.74 in 6.2 mi Variable 2.3 mph - N/A   Partly Cloudy
11:00 AM 53.6 °F 42.8 °F 67% 29.74 in 6.2 mi Variable 1.2 mph - N/A   Partly Cloudy
11:30 AM 53.6 °F 41.0 °F 62% 29.74 in 6.2 mi North 6.9 mph - N/A   Partly Cloudy
12:00 PM 55.4 °F 41.0 °F 58% 29.74 in 6.2 mi Variable 2.3 mph - N/A   Partly Cloudy
12:30 PM 55.4 °F 41.0 °F 58% 29.74 in 6.2 mi Variable 2.3 mph - N/A   Partly Cloudy
1:00 PM 55 °F 40 °F 45% 29.74 in 19 mi Calm Calm - -   Partly Cloudy
1:00 PM 55.4 °F 41.0 °F 58% 29.74 in 6.2 mi Calm Calm - N/A   Partly Cloudy
1:30 PM 55.4 °F 42.8 °F 63% 29.71 in 6.2 mi Variable 2.3 mph - N/A   Partly Cloudy
2:00 PM 53.6 °F 44.6 °F 72% 29.71 in 6.2 mi Calm Calm - N/A   Partly Cloudy
2:30 PM 53.6 °F 44.6 °F 72% 29.71 in 6.2 mi Calm Calm - N/A   Partly Cloudy
3:00 PM 53.6 °F 46.4 °F 77% 29.71 in 6.2 mi NW 1.2 mph - N/A   Partly Cloudy
3:30 PM 51.8 °F 48.2 °F 88% 29.71 in 6.2 mi WNW 4.6 mph - N/A   Partly Cloudy
4:00 PM 53 °F 46 °F 71% 29.74 in 19 mi North 2.2 mph - -   Mostly Cloudy
4:00 PM 53.6 °F 46.4 °F 77% 29.71 in - North 3.5 mph - N/A   Clear
4:30 PM 50.0 °F 46.4 °F 87% 29.74 in - WSW 2.3 mph - N/A   Clear
5:00 PM 50.0 °F 48.2 °F 94% 29.74 in - East 5.8 mph - N/A   Clear
5:30 PM 50.0 °F 46.4 °F 87% 29.74 in - ENE 5.8 mph - N/A   Clear
6:00 PM 50.0 °F 46.4 °F 87% 29.74 in - East 5.8 mph - N/A   Clear
6:30 PM 48.2 °F 46.4 °F 93% 29.74 in - East 8.1 mph - N/A   Clear
7:00 PM 48 °F 44 °F 81% 29.77 in 19 mi East 6.7 mph - -   Mostly Cloudy
7:00 PM 50.0 °F 44.6 °F 82% 29.77 in - East 6.9 mph - N/A   Clear
8:00 PM 48.2 °F 44.6 °F 87% 29.77 in - East 9.2 mph - N/A   Clear
8:30 PM 50.0 °F 42.8 °F 76% 29.77 in 6.2 mi East 9.2 mph - N/A   Mostly Cloudy
9:00 PM 50.0 °F 41.0 °F 71% 29.77 in 6.2 mi ENE 9.2 mph - N/A   Mostly Cloudy
9:30 PM 50.0 °F 42.8 °F 76% 29.77 in 6.2 mi East 10.4 mph - N/A Thunderstorm Mostly Cloudy
10:00 PM 49 °F 42 °F 70% 29.78 in 19 mi East 11.2 mph - - Thunderstorm Light Thunderstorm
10:00 PM 50.0 °F 42.8 °F 76% 29.77 in 6.2 mi East 9.2 mph - N/A   Scattered Clouds
10:30 PM 48.2 °F 42.8 °F 82% 29.77 in 6.2 mi East 8.1 mph - N/A   Mostly Cloudy
11:00 PM 50.0 °F 46.4 °F 87% 29.74 in 6.2 mi ESE 13.8 mph - N/A   Mostly Cloudy
11:30 PM 50.0 °F 48.2 °F 94% 29.74 in 6.2 mi East 15.0 mph - N/A Rain , Thunderstorm Light Rain